TimeMST,TemperatureF,Dew PointF,Humidity,Sea Level PressureIn,VisibilityMPH,Wind Direction,Wind SpeedMPH,Gust SpeedMPH,PrecipitationIn,Events,Conditions,WindDirDegrees,DateUTC
12:53 AM,55.9,37.9,51,30.10,10.0,NE,3.5,-,N/A,,Clear,40,2012-11-29 07:53:00
1:53 AM,54.0,36.0,51,30.08,10.0,Calm,Calm,-,N/A,,Clear,0,2012-11-29 08:53:00
2:53 AM,53.1,37.0,55,30.09,10.0,Calm,Calm,-,N/A,,Clear,0,2012-11-29 09:53:00
3:53 AM,54.0,36.0,51,30.09,10.0,Calm,Calm,-,N/A,,Clear,0,2012-11-29 10:53:00
4:53 AM,51.1,36.0,56,30.10,10.0,Calm,Calm,-,N/A,,Clear,0,2012-11-29 11:53:00
5:53 AM,53.1,34.0,48,30.11,10.0,Calm,Calm,-,N/A,,Clear,0,2012-11-29 12:53:00
6:53 AM,52.0,35.1,53,30.12,10.0,Calm,Calm,-,N/A,,Clear,0,2012-11-29 13:53:00
7:53 AM,54.0,35.1,49,30.14,10.0,Calm,Calm,-,N/A,,Clear,0,2012-11-29 14:53:00
8:53 AM,60.1,35.1,39,30.15,6.0,Calm,Calm,-,N/A,,Haze,0,2012-11-29 15:53:00
9:53 AM,62.1,36.0,38,30.17,10.0,SSW,3.5,-,N/A,,Clear,200,2012-11-29 16:53:00
10:53 AM,66.0,36.0,33,30.16,10.0,South,4.6,-,N/A,,Clear,180,2012-11-29 17:53:00
11:53 AM,70.0,36.0,29,30.14,10.0,Calm,Calm,-,N/A,,Clear,0,2012-11-29 18:53:00
12:53 PM,71.1,35.1,27,30.11,10.0,SW,3.5,-,N/A,,Clear,220,2012-11-29 19:53:00
1:53 PM,73.0,34.0,24,30.09,10.0,Calm,Calm,-,N/A,,Clear,0,2012-11-29 20:53:00
2:53 PM,73.9,35.1,24,30.08,10.0,Calm,Calm,-,N/A,,Clear,0,2012-11-29 21:53:00
3:53 PM,73.9,35.1,24,30.06,10.0,SE,3.5,-,N/A,,Clear,130,2012-11-29 22:53:00
4:53 PM,73.0,36.0,26,30.06,10.0,Calm,Calm,-,N/A,,Clear,0,2012-11-29 23:53:00
5:53 PM,71.1,36.0,28,30.07,10.0,Calm,Calm,-,N/A,,Clear,0,2012-11-30 00:53:00
6:53 PM,68.0,37.0,32,30.08,10.0,Calm,Calm,-,N/A,,Clear,0,2012-11-30 01:53:00
7:53 PM,66.0,37.0,34,30.09,10.0,Calm,Calm,-,N/A,,Clear,0,2012-11-30 02:53:00
8:53 PM,63.0,37.9,40,30.10,10.0,Calm,Calm,-,N/A,,Clear,0,2012-11-30 03:53:00
9:53 PM,62.1,37.9,41,30.10,10.0,NE,3.5,-,N/A,,Clear,40,2012-11-30 04:53:00
10:53 PM,57.9,37.9,47,30.11,10.0,Calm,Calm,-,N/A,,Clear,0,2012-11-30 05:53:00
11:53 PM,60.1,37.0,42,30.10,10.0,Calm,Calm,-,N/A,,Clear,0,2012-11-30 06:53:00